Flag for Canada Weather past 2 weeks in Norfolk, Ontario, Canada

Now
62 °F

Cool.


Feels Like: 62 °F
Forecast: 53 / 78 °F
Wind: No wind

Location: Delhi CS

Current Time: Jul 3, 2015 at 11:30:02 PM

Latest Report: Jul 3, 2015 at 10:00 PM


Visibility: N/A

Pressure: 29.91 "Hg

Humidity: 75%

Dew point: 54 °F

Location of NorfolkLocation

Historic Weather in Norfolk — Graph

°F

Norfolk temperature yesterday

Maximum temperature yesterday: 72 °F (at 5:00 PM)
Minimum temperature yesterday: 49 °F (at 6:00 AM)
Average temperature yesterday: 62 °F

Past Weeks' High & Low Weather Summary

 TemperatureHumidityPressure
High81 °F (Jun 22, 1:00 PM)100% (Jun 21, 4:00 AM)30.13 "Hg (Jun 21, 4:00 AM)
Low44 °F (Jul 3, 6:00 AM)29% (Jun 25, 3:00 PM)29.64 "Hg (Jun 28, 5:00 AM)
Average64 °F77%29.90 "Hg
* Reported Jun 18 10:00 PM — Jul 3 10:00 PM, Norfolk, Weather by CustomWeather, © 2015

Note: Actual official high and low records may vary slightly from our data, if they occured in-between our weather recording intervals... More about our weather records

Advertising

Norfolk weather history for previous 24 hours

 ConditionsComfort  
Time TempWeatherWind HumidityBarometerVisibility
10:00 PM
Fri, Jul 3
62 °FCool.No wind75%29.91 "HgN/A
9:00 PM64 °FMild.No wind71%29.89 "HgN/A
8:00 PM69 °FMild.No wind52%29.90 "HgN/A
7:00 PM71 °FMild.2 mph46%29.90 "HgN/A
6:00 PM73 °FMild.5 mph39%29.91 "HgN/A
5:00 PM74 °FMild.5 mph35%29.92 "HgN/A
4:00 PM73 °FMild.5 mph38%29.94 "HgN/A
3:00 PM71 °FMild.3 mph40%29.95 "HgN/A
2:00 PM71 °FMild.5 mph39%29.96 "HgN/A
1:00 PM67 °FMild.3 mph36%29.96 "HgN/A
12:00 PM67 °FMild.3 mph41%29.99 "HgN/A
11:00 AM66 °FMild.3 mph38%29.99 "HgN/A
10:00 AM64 °FMild.3 mph47%30.00 "HgN/A
9:00 AM61 °FRefreshingly cool.2 mph58%30.01 "HgN/A
8:00 AM55 °FCool.1 mph81%30.00 "HgN/A
7:00 AM47 °FCool.No wind98%30.00 "HgN/A
6:00 AM44 °FQuite cool.1 mph98%29.99 "HgN/A
5:00 AM46 °FCool.No wind98%29.99 "HgN/A
4:00 AM47 °FCool.No wind97%29.98 "HgN/A
3:00 AM49 °FCool.2 mph99%29.98 "HgN/A
2:00 AM49 °FCool.1 mph98%29.99 "HgN/A
1:00 AM49 °FCool.No wind100%29.99 "HgN/A
12:00 AM53 °FCool.1 mph96%29.97 "HgN/A
11:00 PM
Thu, Jul 2
57 °FCool.2 mph85%29.98 "HgN/A
Weather by CustomWeather, © 2015

See weather overviewHow to use our weather pages